Flag for China Weather past 2 weeks in Tianjin, Tianjin Municipality, China

Now
90 °F

Passing clouds.


Feels Like: 91 °F
Forecast: 73 / 91 °F
Wind: 8 mph from Southwest

Location: Tianjin / Zhangguizhu

Current Time: Aug 4, 2015 at 4:00:19 PM

Latest Report: Aug 4, 2015 at 3:30 PM


Visibility: N/A

Pressure: 29.53 "Hg

Humidity: 43%

Dew point: 64 °F

Location of TianjinLocation

Historic Weather in Tianjin — Graph

°F

Tianjin temperature yesterday

Maximum temperature yesterday: 84 °F (at 1:00 PM)
Minimum temperature yesterday: 75 °F (at 7:00 PM)
Average temperature yesterday: 78 °F

Past Weeks' High & Low Weather Summary

 TemperatureHumidityPressure
High95 °F (Jul 26, 2:30 PM)94% (Jul 20, 3:00 PM)29.77 "Hg (Jul 20, 3:00 PM)
Low70 °F (Aug 4, 4:30 AM)35% (Aug 4, 11:00 AM)29.50 "Hg (Jul 25, 4:30 PM)
Average81 °F74%29.62 "Hg
* Reported Jul 20 2:00 PM — Aug 4 2:30 PM, Tianjin, Weather by CustomWeather, © 2015

Note: Actual official high and low records may vary slightly from our data, if they occured in-between our weather recording intervals... More about our weather records

Advertising

Tianjin weather history for previous 24 hours

 ConditionsComfort  
Time TempWeatherWind HumidityBarometerVisibility
2:30 PM
Tue, Aug 4
90 °FPassing clouds.8 mph36%29.56 "HgN/A
2:00 PM88 °FPassing clouds.6 mph40%29.56 "HgN/A
1:30 PM88 °FSunny.6 mph40%29.56 "Hg10 mi
1:00 PM86 °FPassing clouds.8 mph43%29.56 "HgN/A
12:30 PM86 °FSunny.8 mph43%29.56 "Hg10 mi
12:00 PM86 °FPassing clouds.8 mph38%29.56 "HgN/A
11:00 AM86 °FPassing clouds.8 mph35%29.59 "HgN/A
10:30 AM86 °FPassing clouds.8 mph40%29.59 "HgN/A
10:00 AM84 °FPassing clouds.6 mph40%29.56 "HgN/A
9:30 AM82 °FSunny.6 mph42%29.56 "Hg10 mi
9:00 AM81 °FSunny.6 mph48%29.56 "Hg10 mi
8:30 AM79 °FSunny.6 mph51%29.56 "Hg10 mi
8:00 AM79 °FPassing clouds.6 mph51%29.56 "HgN/A
7:30 AM77 °FPassing clouds.3 mph54%29.56 "HgN/A
7:00 AM73 °FSunny.1 mph61%29.56 "Hg10 mi
6:30 AM72 °FSunny.3 mph65%29.56 "Hg10 mi
6:00 AM72 °FSunny.3 mph65%29.56 "Hg10 mi
5:30 AM70 °FSunny.3 mph69%29.56 "Hg10 mi
5:00 AM70 °FClear.1 mph69%29.56 "Hg10 mi
4:30 AM70 °FClear.3 mph69%29.53 "Hg10 mi
4:00 AM72 °FClear.3 mph65%29.53 "Hg10 mi
3:30 AM72 °FClear.3 mph61%29.53 "Hg10 mi
3:00 AM72 °FClear.6 mph61%29.53 "Hg10 mi
2:30 AM72 °FClear.6 mph65%29.53 "Hg10 mi
2:00 AM73 °FClear.6 mph61%29.53 "Hg10 mi
1:30 AM73 °FClear.3 mph61%29.53 "Hg10 mi
12:30 AM73 °FClear.3 mph65%29.56 "Hg10 mi
12:00 AM75 °FClear.3 mph57%29.56 "Hg10 mi
11:30 PM
Mon, Aug 3
75 °FClear.3 mph57%29.56 "Hg10 mi
11:00 PM75 °FPassing clouds.8 mph57%29.56 "HgN/A
10:30 PM75 °FPassing clouds.8 mph57%29.56 "HgN/A
10:00 PM75 °FClear.8 mph61%29.56 "Hg10 mi
9:30 PM75 °FClear.8 mph69%29.53 "Hg10 mi
9:00 PM75 °FClear.6 mph69%29.53 "Hg10 mi
8:30 PM75 °FClear.1 mph69%29.53 "Hg10 mi
8:00 PM75 °FClear.6 mph69%29.53 "Hg10 mi
7:30 PM75 °FClear.8 mph65%29.53 "Hg10 mi
7:00 PM75 °FOvercast.8 mph74%29.53 "HgN/A
6:30 PM77 °FOvercast.8 mph79%29.53 "Hg4 mi
6:00 PM77 °FLight rain. Partly sunny.15 mph79%29.53 "Hg4 mi
5:30 PM81 °FFog.6 mph89%29.53 "Hg1 mi
5:00 PM81 °FLight rain. Fog.6 mph84%29.53 "Hg1 mi
4:30 PM81 °FLight rain. Fog.6 mph84%29.56 "Hg1 mi
4:00 PM81 °FLight rain. Fog.3 mph84%29.56 "Hg2 mi
Weather by CustomWeather, © 2015

See weather overviewHow to use our weather pages